Regional Weather Roundup
Issued by NWS

Home | Current Version | Previous Version | Text Only | Print | Product List | Glossary On
Versions: 1 2 3 4 5 6 7 8 9 10 11 12 13 14 15 16 17 18 19 20 21 22 23 24 25 26 27 28 29 30 31 32 33 34 35 36 37 38 39 40 41 42 43 44 45 46 47 48 49 50
000
ASUS42 KFFC 050903
RWRGA
WEATHER ROUNDUP FOR GEORGIA
NATIONAL WEATHER SERVICE PEACHTREE CITY GA
500 AM EDT WED AUG 05 2015

NOTE: "FAIR" INDICATES FEW OR NO CLOUDS BELOW 12,000 FEET WITH NO
SIGNIFICANT WEATHER AND/OR OBSTRUCTIONS TO VISIBILITY.

* = USE WITH CAUTION. THE STATIONS MARKED WITH AN ASTERISK MAY NOT
REPORT WEATHER SUCH AS PRECIPITATION, FOG, OR THUNDER AND ARE NOT
QUALITY CONTROLLED BY NWS.

THE REMARK "TC" DENOTES TEMPERATURE READING IN DEGREES CELSIUS.

GAZ001>058-051000-
NORTH GEORGIA

CITY           SKY/WX    TMP DP  RH WIND       PRES   REMARKS
ATLANTA        PTCLDY    77  67  71 SW6       30.03S
ATHENS         CLEAR     73  68  84 CALM      30.02S
CHAMBLEE       CLEAR     75  67  76 CALM      30.03S
PEACHTREE CITY CLEAR     71  69  93 CALM      30.04S
ROME           PTCLDY    73  69  87 CALM      30.01R
WEST ATLANTA   CLEAR     75  67  76 CALM      30.02S
GAINESVILLE    PTCLDY    76  66  71 CALM      30.06S
CARTERSVILLE   CLEAR     68  65  90 CALM      30.02S


CITY           SKY/WX    TMP DP  RH WIND       PRES   REMARKS
DALTON*        CLOUDY    72  72 100 CALM      30.03R
MARIETTA       CLEAR     74  66  76 CALM      30.03S
BLAIRSVILLE*     N/A     64  56  76 CALM      30.10S HAZE
$$

GAZ059>098-102>109-051000-
CENTRAL GEORGIA

CITY           SKY/WX    TMP DP  RH WIND       PRES   REMARKS
AUGUSTA-BUSH   CLEAR     75  71  87 CALM      30.01R
AUGUSTA-DANIEL CLEAR     78  71  79 SW3       30.02S
COLUMBUS       CLEAR     76  71  85 VRB3      30.03R
MACON          CLEAR     75  72  90 SW3       30.03R
ROBINS AFB     CLEAR     74  72  96 SW2       30.02S


CITY           SKY/WX    TMP DP  RH WIND       PRES   REMARKS
LAGRANGE*      CLEAR     74  74 100 CALM      30.04R
SYLVANIA*      CLEAR     76  75  96 CALM      30.03S
MILLEDGEVILLE* CLEAR     75  72  88 CALM      30.03S
$$

GAZ099>101-110>166-051000-
SOUTH GEORGIA

CITY           SKY/WX    TMP DP  RH WIND       PRES   REMARKS
SAVANNAH       CLEAR     75  71  87 SW3       30.03S
VALDOSTA       NOT AVBL
ALMA           CLEAR     73  72  96 S3        30.04S
ST SIMONS      CLEAR     77  75  93 SW9       30.05R
ALBANY         CLEAR     76  73  91 SW3       30.05S
HUNTER AFB     PTCLDY    75  74  97 SW5       30.01S
MOODY AFB      CLEAR     74  72  94 S2        30.05R
BRUNSWICK      PTCLDY    77  73  88 S6        30.06R


CITY           SKY/WX    TMP DP  RH WIND       PRES   REMARKS
BAINBRIDGE*    CLEAR     79  77  94 CALM      30.04R
MOULTRIE*      CLEAR     73  73 100 CALM      30.06R FOG
VIDALIA*       CLEAR     75  73  94 SW5       30.04S
WAYCROSS*      CLEAR     77  77 100 SW3       30.05S
DOUGLAS*       CLEAR     75  73  94 CALM      30.06R
$$


USA.gov is the U.S. government's official web portal to all federal, state and local government web resources and services.